Tracking 30995 objects as of 7-Jul-2025
HD Live streaming from Space Station
objects crossing your sky now

STARLINK-32137

Track STARLINK-32137 now!
10-day predictions
STARLINK-32137 is classified as:


NORAD ID: 60155
Int'l Code: 2024-120W
Perigee: 481.6 km
Apogee: 483.1 km
Inclination: 53.2 °
Period: 94.1 minutes
Semi major axis: 6853 km
RCS: Unknown
Launch date: June 27, 2024
Source: United States (US)
Launch site: AIR FORCE EASTERN TEST RANGE (AFETR)
Your satellite tracking list
IRNSS 1G
Track 1 satellite(s)




NASA's NSSDC Master Catalog

Two Line Element Set (TLE):
1 60155U 24120W   25187.82817864  .00000420  00000-0  26313-4 0  9998
2 60155  53.1618  21.9272 0001084  88.4959 271.6166 15.30197939 58641
Source of the keplerian elements: AFSPC